Regional Weather Roundup
Issued by NWS Goodland, KS

Home | Current Version | Previous Version | Graphics & Text | Print | Product List | Glossary On
Versions: 1 2 3 4 5 6 7 8 9 10 11 12 13 14 15 16 17 18 19 20 21 22 23 24 25 26 27 28 29 30 31 32 33 34 35 36 37 38 39 40 41 42 43 44 45 46 47 48 49 50
000
ASUS43 KGLD 280959
RWRGLD

GOODLAND FORECAST AREA HOURLY WEATHER ROUNDUP
NATIONAL WEATHER SERVICE GOODLAND KS
400 AM MDT TUE JUL 28 2015

...OFFICIAL OBSERVATIONS...

CITY           SKY/WX    TMP DP  RH WIND       PRES   REMARKS
GOODLAND KS    CLEAR     73  57  57 NW18G25   29.87R
HILL CITY KS   PTCLDY    80  68  66 S16G22    29.76F
IMPERIAL NEB   CLEAR     72  49  44 NW16      29.85R
MCCOOK NEB     PTCLDY    79  66  64 W12       29.77R
AKRON CO         N/A    N/A N/A N/A MISG      30.01R
BURLINGTON CO  CLEAR     70  50  49 NW15      29.94R
LIMON CO       CLEAR     62  39  42 N16       30.05R
$$

...UNOFFICIAL OBSERVATIONS...

CITY           SKY/WX    TMP DP  RH WIND       PRES   REMARKS
COLBY KS       CLEAR     75  68  78 SW10      29.82R
LENORA KS        N/A     79  32  18 MISG        N/A
NORTON KS      CLEAR     79  63  57 S14G21    29.74F
SHARON SPRINGS   N/A     72  65  80 N8          N/A
TRIBUNE KS       N/A    N/A N/A N/A MISG        N/A
KIT CARSON CO    N/A     68  51  53 MISG        N/A
YUMA CO          N/A     67  44  43 N8          N/A
$$


USA.gov is the U.S. government's official web portal to all federal, state and local government web resources and services.